This is the latest recevied weather packets stored in our database for station/object KG4GJX. If no packets are shown the sender has not sent any weather packets the latest 10 day(s).
| Time | Temp. | Humidity | Pressure | Rain* | Wind** | Luminosity | Snow |
|---|---|---|---|---|---|---|---|
| 1777453835 | 16.67° C | 100% | 1011.8 hPa | 1.02 mm | - | - | - |
| 1777453172 | 16.67° C | 100% | 1012.8 hPa | 1.52 mm | - | - | - |
| 1777452510 | 16.67° C | 100% | 1013.2 hPa | 1.78 mm | - | - | - |
| 1777451848 | 17.22° C | 100% | 1013.5 hPa | 2.03 mm | - | - | - |
| 1777451186 | 16.67° C | 100% | 1013.5 hPa | 1.78 mm | - | - | - |
| 1777450523 | 17.22° C | 100% | 1014.2 hPa | 1.27 mm | - | - | - |
| 1777449861 | 17.22° C | 100% | 1014.5 hPa | 1.02 mm | - | - | - |
| 1777449198 | 17.22° C | 100% | 1014.5 hPa | 0.51 mm | - | - | - |
| 1777448535 | 17.22° C | 100% | 1014.5 hPa | 0.25 mm | - | - | - |
| 1777447873 | 17.22° C | 100% | 1014.9 hPa | 0 mm | - | - | - |
| 1777447210 | 17.22° C | 100% | 1014.9 hPa | 0 mm | - | - | - |
| 1777446548 | 17.22° C | 100% | 1014.9 hPa | 0 mm | - | - | - |
| 1777445885 | 17.22° C | 100% | 1015.2 hPa | 0 mm | - | - | - |
| 1777445223 | 17.22° C | 100% | 1014.9 hPa | 0 mm | - | - | - |
| 1777444560 | 17.22° C | 100% | 1014.9 hPa | 0 mm | - | - | - |
| 1777443898 | 17.22° C | 100% | 1014.9 hPa | 0 mm | - | - | - |
| 1777443236 | 17.22° C | 100% | 1014.9 hPa | 0 mm | - | - | - |
| 1777442573 | 17.22° C | 100% | 1014.9 hPa | 0 mm | - | - | - |
| 1777441911 | 17.22° C | 100% | 1014.5 hPa | 0 mm | - | - | - |
| 1777441248 | 17.22° C | 100% | 1014.5 hPa | 0 mm | - | - | - |
| 1777440585 | 17.22° C | 100% | 1014.5 hPa | 0 mm | - | - | - |
| 1777439923 | 17.22° C | 100% | 1014.2 hPa | 0 mm | - | - | - |
| 1777439261 | 17.22° C | 100% | 1014.5 hPa | 0 mm | - | - | - |
| 1777438598 | 17.22° C | 100% | 1014.5 hPa | 0 mm | - | - | - |
| 1777437936 | 17.78° C | 100% | 1014.9 hPa | 0 mm | - | - | - |
* Rain latest hour (hover to see other rain measurements)
** Current wind speed in m/s (hover to see current wind gust speed)